Location: Unspecified
(0.0000°N, 0.0000°E)
Time: 01:24:37
(UTC+00:00)

Vanguard 3 - Pass Details

Date: 17 December 2017
Orbit: 508 x 3264 km, 33.3° (Epoch: 21 July)

Event Time Altitude Azimuth Distance (km) Brightness Sun altitude
Rises 00:30:20 0° 236° (WSW) 6,109 11.7 -65.2°
Reaches altitude 10° 00:36:40 10° 218° (SW) 5,571 11.5 -64.6°
Maximum altitude 00:46:56 17° 182° (S) 5,441 11.5 -63.6°
Drops below altitude 10° 00:58:18 10° 146° (SSE) 6,198 11.9 -62.2°
Sets 01:06:11 0° 128° (SE) 7,060 12.3 -61.1°
